CW3794 Weather Reports


Display with metric or nautical units.
time (UTC)temp
F
wind
direction
speed
MPH
gust
MPH
rain 1hr
in
rain 24hr
in
rain mn
in
humidity
%
barometer
mb
20181020120333 68 28 0.0 0.0 0.00 0.00 0.00 54 1016.4
20181020115341 68 28 0.0 0.0 0.00 0.00 0.00 54 1016.3
20181020114401 68 28 0.0 0.0 0.00 0.00 0.00 53 1016.2
20181020112315 70 28 0.0 0.0 0.00 0.00 0.00 51 1016.1
20181020103357 70 28 0.0 3.0 0.00 0.00 0.00 49 1016.0
20181020102317 70 28 0.0 0.0 0.00 0.00 0.00 48 1015.9
20181020094327 70 28 0.0 3.0 0.00 0.00 0.00 46 1015.9
20181020092400 71 27 0.0 3.0 0.00 0.00 0.00 45 1015.9
20181020091329 71 26 1.0 3.0 0.00 0.00 0.00 45 1016.0
20181020085349 71 22 1.0 4.0 0.00 0.00 0.00 44 1016.0
20181020081331 70 22 0.0 4.0 0.00 0.00 0.00 45 1016.0
20181020073401 71 60 0.0 3.0 0.00 0.00 0.00 43 1015.9
20181020072323 72 62 0.0 0.0 0.00 0.00 0.00 42 1015.9
20181020070344 71 63 0.0 1.0 0.00 0.00 0.00 42 1015.8
20181020063338 70 64 0.0 7.0 0.00 0.00 0.00 43 1015.9
20181020062341 70 43 0.0 2.0 0.00 0.00 0.00 44 1015.9
20181020060350 71 43 0.0 1.0 0.00 0.00 0.00 43 1016.0
20181020053345 72 43 0.0 2.0 0.00 0.00 0.00 41 1015.9
20181020051353 74 44 0.0 4.0 0.00 0.00 0.00 39 1015.9
20181020050345 74 43 0.0 5.0 0.00 0.00 0.00 39 1015.8
20181020042343 71 50 2.0 5.0 0.00 0.00 0.00 44 1015.6
20181020041335 71 17 0.0 0.0 0.00 0.00 0.00 48 1015.5
20181020035352 72 20 0.0 4.0 0.00 0.00 0.00 47 1015.6
20181020034351 71 15 0.0 4.0 0.00 0.00 0.00 51 1015.5
20181020033336 71 16 1.0 3.0 0.00 0.00 0.00 51 1015.7
20181020031400 72 16 1.0 4.0 0.00 0.00 0.00 50 1015.6
20181020030338 73 18 1.0 4.0 0.00 0.00 0.00 49 1015.5
20181020025333 73 73 0.0 2.0 0.00 0.00 0.00 48 1015.4
20181020024348 73 74 0.0 0.0 0.00 0.00 0.00 48 1015.3
20181020023332 73 74 0.0 0.0 0.00 0.00 0.00 47 1015.3
20181020022353 73 74 0.0 0.0 0.00 0.00 0.00 47 1015.3
20181020021330 73 74 0.0 0.0 0.00 0.00 0.00 47 1015.1
20181020020325 74 74 0.0 0.0 0.00 0.00 0.00 46 1015.1
20181020015325 75 75 0.0 0.0 0.00 0.00 0.00 45 1015.0
20181020011400 77 75 0.0 0.0 0.00 0.00 0.00 40 1014.9
20181020005345 79 74 0.0 0.0 0.00 0.00 0.00 38 1014.8
20181020004357 80 75 0.0 0.0 0.00 0.00 0.00 36 1014.7
20181020002351 80 74 0.0 0.0 0.00 0.00 0.00 35 1014.6
20181020001340 81 74 0.0 0.0 0.00 0.00 0.00 36 1014.6
20181020000401 81 74 0.0 0.0 0.00 0.00 0.00 34 1014.6
20181019234327 81 97 0.0 6.0 0.00 0.00 0.00 33 1014.7
20181019232327 82 130 1.0 6.0 0.00 0.00 0.00 33 1014.6
20181019231327 82 88 0.0 4.0 0.00 0.00 0.00 32 1014.7
20181019230357 83 78 0.0 4.0 0.00 0.00 0.00 32 1014.8
20181019224352 82 75 0.0 6.0 0.00 0.00 0.00 32 1014.8
20181019222338 82 104 2.0 9.0 0.00 0.00 0.00 31 1014.9
20181019221346 82 57 1.0 6.0 0.00 0.00 0.00 31 1014.9
20181019220351 82 94 3.0 9.0 0.00 0.00 0.00 31 1015.0
20181019215333 82 84 2.0 7.0 0.00 0.00 0.00 30 1015.1
20181019213332 82 73 1.0 10.0 0.00 0.00 0.00 30 1015.3
20181019211409 82 80 0.0 6.0 0.00 0.00 0.00 30 1015.4
20181019205337 83 86 0.0 6.0 0.00 0.00 0.00 30 1015.6
20181019203406 82 66 3.0 7.0 0.00 0.00 0.00 30 1015.9
20181019202337 82 107 0.0 7.0 0.00 0.00 0.00 30 1016.0
20181019201354 81 129 0.0 5.0 0.00 0.00 0.00 32 1016.1
20181019200330 81 95 4.0 7.0 0.00 0.00 0.00 30 1016.3
20181019195339 81 135 3.0 8.0 0.00 0.00 0.00 31 1016.5
20181019181412 78 72 1.0 6.0 0.00 0.00 0.00 33 1018.0
20181019174347 77 63 5.0 10.0 0.00 0.00 0.00 33 1018.4
20181019172422 76 61 5.0 13.0 0.00 0.00 0.00 33 1018.6
20181019171406 76 27 1.0 7.0 0.00 0.00 0.00 35 1018.6
20181019161351 74 61 0.0 8.0 0.00 0.00 0.00 38 1019.0
20181019154425 72 92 2.0 7.0 0.00 0.00 0.00 40 1019.0
20181019153409 71 29 1.0 5.0 0.00 0.00 0.00 40 1019.0
20181019151407 69 44 1.0 5.0 0.00 0.00 0.00 42 1018.9
20181019150411 68 42 0.0 4.0 0.00 0.00 0.00 45 1018.8
20181019145349 67 42 0.0 4.0 0.00 0.00 0.00 46 1018.6
20181019144406 66 42 1.0 4.0 0.00 0.00 0.00 48 1018.7
20181019142416 64 45 0.0 7.0 0.00 0.00 0.00 50 1018.5
20181019141410 62 27 1.0 4.0 0.00 0.00 0.00 52 1018.5
20181019135341 61 27 0.0 2.0 0.00 0.00 0.00 55 1018.4
20181019130414 60 27 0.0 2.0 0.00 0.00 0.00 58 1018.1